GFSNE_prec_radar_114.txt.gz
Reflectivity
26 25 24 21 22 25 16 17 18 20 -15 -12 16 22 32 24 26 11 -10 11 -20 -20 -1 5 11 29 26 7 7 -0 8 5 -3 13 2 12 10 12
35 36 36 34 34 32 33 30 26 15 4 -1 19 28 -11 -20 -10 -6 -7 7 6 -2 16 15 14 9 6 7 20 10 -11 11 -5 -4 -1 9 9 4
33 34 34 33 33 33 31 27 21 23 14 6 29 14 -15 -20 -20 -17 11 -11 12 4 -8 -2 12 2 10 8 -11 5 -20 -20 -13 -2 -0 1 2 4
31 26 30 37 31 23 24 19 20 19 24 9 19 -7 -16 0 2 10 12 1 0 11 -0 -5 3 2 14 7 16 8 -12 -19 -20 -20 -6 -19 -15 -2
32 32 29 30 20 14 19 19 19 18 12 27 27 -5 3 4 28 17 2 23 23 -7 -6 3 11 1 -2 0 -20 -20 -20 -20 -20 -20 -20 -20 -20 -20
22 5 17 15 16 14 8 -4 -11 -20 -19 -18 1 23 24 16 13 13 26 22 14 -17 15 20 -3 -9 -20 -20 -20 -20 -20 -20 -20 -20 -20 -20 -20 -20
6 24 11 -10 0 -8 -15 -20 -19 -20 -4 -3 13 7 -4 5 5 7 10 20 18 -5 11 18 -15 -20 -20 -20 -20 -20 -20 -20 -20 -9 -20 -20 -20 -20
-3 -20 -20 -20 7 7 -20 2 7 10 -17 8 -6 -13 16 28 19 -7 -18 -20 -20 -20 -15 -3 -6 -20 -20 -20 -20 -20 -20 -20 -20 -20 -20 -20 -20 -20
-20 -20 -20 -20 -1 -20 -2 1 6 12 6 -10 8 -13 4 6 -11 -17 -20 -20 -20 -20 -20 -20 -19 -20 -20 -20 -20 -20 -20 -20 -20 -20 -20 -20 -20 -20
3 2 -19 -12 11 17 -6 7 4 -1 3 10 7 -5 -14 -20 -20 -19 -18 -13 -20 -20 -20 -20 -20 -20 -20 -20 -20 -20 -20 -20 -20 -20 -20 -20 -20 -18
9 10 14 10 21 14 3 -14 5 13 17 12 0 3 -19 -20 -19 -20 -20 -20 -20 -20 -20 -20 -20 -20 -20 -20 -20 -20 -20 -20 -20 -20 -20 -20 -20 -20
5 10 17 17 18 11 -3 -3 15 17 12 6 12 14 15 12 5 -16 -15 -16 -20 -20 -20 -20 -20 -20 -20 -20 -20 -20 -20 -20 -20 -20 -20 -20 -20 0
-1 1 10 15 15 16 14 -3 11 20 25 26 14 6 2 -15 -16 -15 -20 -20 -20 -20 -20 -20 -20 -20 -20 -20 -20 -20 -20 -20 -20 -20 -20 -20 -20 -20
15 18 21 21 15 14 19 22 24 24 24 22 17 14 9 1 -10 -20 -20 -20 -20 -20 -20 -20 -20 -20 -20 -20 -20 -20 -20 -20 -20 -20 -20 -20 -20 -20
17 21 22 22 21 21 20 18 16 16 17 16 14 10 -2 -18 -20 -20 -20 -20 -20 -20 -20 -20 -20 -20 -20 -20 -20 -20 -20 -20 -20 -20 -20 -15 -19 -9
23 18 21 24 24 24 25 22 18 18 15 7 1 -5 -10 -20 -20 -20 -20 -20 -20 -20 -20 -20 -20 -20 -20 -20 -20 -20 -20 -20 -20 -20 -20 -20 -20 -17
26 25 22 21 18 14 14 9 -1 -0 -4 -14 -20 -20 -20 -20 -20 -20 -20 -20 -20 -20 -20 -20 -20 -20 -20 -20 -20 -20 -20 -20 -20 -20 -20 -20 -20 -20
22 10 7 1 -6 -17 -20 -19 -20 -20 -20 -20 -20 -20 -20 -20 -20 -20 -20 -20 -20 -20 -20 -20 -20 -20 -20 -20 -20 -20 -20 -20 -20 -20 -6 -20 -20 -20
17 20 17 7 -20 -19 -14 -14 -20 -20 -20 -20 -20 -20 -20 -20 -20 -20 -20 -20 -20 -20 -20 -20 -20 -20 -20 -20 -20 -3 2 -15 -20 -20 -20 -20 -20 -20
-3 -12 -16 -11 -15 -20 -20 -20 -20 -20 -20 -20 -20 -20 -20 -20 -20 -20 -20 -20 -20 -20 -20 -20 -20 -20 -20 -20 -20 -20 1 4 -19 -20 -20 -20 -20 -20
-13 -17 -20 -20 -20 -20 -20 -20 -20 -20 -20 -20 -20 -20 -20 -20 -20 -20 -20 -20 -20 -20 -20 -20 -20 -20 -20 -20 -20 -20 -20 3 9 14 -7 -9 -20 -8
-20 -20 -20 -20 -20 -20 -20 -20 -20 -20 -20 -20 -20 -20 -20 -20 -20 -20 -20 -20 -20 -20 -20 -20 -20 -20 -20 -20 -20 -20 -20 -20 -20 -20 13 21 12 -19
-20 -20 -20 -20 -20 -20 -20 -20 -20 -20 -20 -20 -20 -20 -20 -20 -20 -20 -20 -20 -20 -20 -20 -20 -20 -20 -20 -20 -20 -20 -20 -20 -20 -20 -9 -20 -19 9

GFSNE_prec_radar_117.txt.gz
Reflectivity
-20 -4 -17 -18 -5 -20 3 27 28 28 8 -5 -9 24 12 -4 14 16 -5 19 19 17 -9 -12 -12 -2 2 7 18 22 7 5 -4 7 3 3 -6 -2
4 9 13 18 17 16 25 23 25 20 5 4 24 16 13 16 13 6 -12 -11 7 6 9 5 -4 16 -2 6 -20 -20 11 11 -14 -0 -4 -1 -2 -1
-0 16 27 25 30 28 29 31 24 24 22 24 25 10 27 17 28 2 5 -11 5 5 6 -5 -19 -13 -20 -4 -5 -5 10 14 8 14 -15 3 -20 -16
25 29 34 28 31 25 28 30 26 25 25 27 29 26 26 23 26 9 4 17 11 33 10 13 11 10 18 2 6 12 10 -19 -20 -20 -20 -20 -20 -20
33 30 32 23 9 18 29 26 24 24 23 23 26 24 23 24 26 6 18 31 1 26 17 0 13 4 -1 -0 4 1 -19 -20 -20 -20 -20 -20 -20 -20
38 36 22 20 23 25 28 24 23 26 27 24 24 14 15 13 23 26 1 -6 7 -12 3 7 4 3 -12 -20 -20 -20 -20 -20 -20 -20 -20 -20 -20 -20
35 30 26 33 28 25 26 26 28 25 23 23 22 19 12 22 -2 18 -8 13 21 3 9 10 0 -20 -20 -20 -20 -20 -20 -20 -20 -20 -20 -20 -20 -20
26 23 13 19 28 26 25 23 18 6 15 -6 15 12 20 22 -9 -13 2 -3 -8 -18 -13 4 -19 -8 -20 -20 -20 -20 -20 -20 -20 -20 -20 -20 -20 -20
38 33 28 26 18 8 9 11 7 4 9 5 6 17 9 -1 5 4 1 -9 -18 -20 -20 -20 -20 -20 -17 -9 -20 -20 -20 -20 -20 -20 -20 -20 -20 -20
25 18 -6 9 4 -15 -20 -20 -9 10 8 2 -14 -16 -8 -2 6 4 -15 -5 0 -10 -20 -20 -19 -20 -20 -20 -20 -20 -20 -20 -20 -20 -20 -20 -20 -20
12 -19 -20 -9 19 6 -16 4 -1 2 21 17 -3 -6 -11 -5 6 12 7 13 13 6 -4 -19 -20 -20 -20 -20 -20 -20 -20 -20 -20 -20 -20 -20 -20 -20
1 11 18 9 20 0 -9 -9 3 -4 -9 -8 1 9 8 14 18 17 17 17 17 11 7 7 7 -4 -20 -20 -20 -20 -20 -20 -20 -20 -20 -20 -20 -20
-9 -4 3 13 9 23 15 -12 -5 2 12 9 1 -5 2 -1 -2 -0 5 5 4 -1 -13 -19 -20 -20 -20 -20 -20 -20 -20 -20 -20 -20 -20 -20 -20 -13
4 2 15 21 9 13 11 14 17 17 18 15 15 17 17 16 1 -19 -20 -20 -19 -17 -20 -20 -20 -20 -20 -20 -20 -20 -20 -20 -20 -20 -20 -20 -20 -20
14 21 21 15 14 18 23 12 9 16 19 14 -2 -9 -20 -20 -20 -20 -20 -20 -20 -20 -20 -20 -20 -20 -20 -20 -20 -20 -20 -20 -20 -20 -20 -20 -20 -20
20 25 28 27 21 25 23 21 22 19 5 -20 -20 -20 -20 -20 -20 -20 -20 -20 -20 -20 -20 -20 -20 -20 -20 -20 -20 -20 -20 -20 -20 -20 -20 -20 -20 -20
16 20 25 26 27 19 14 11 4 3 -4 -20 -20 -20 -20 -20 -20 -20 -20 -20 -20 -20 -20 -20 -20 -20 -20 -20 -20 -20 -20 -20 -20 -20 -20 -20 -20 -20
13 1 6 1 -8 -1 1 1 -15 -20 -20 -20 -20 -20 -20 -20 -20 -20 -20 -20 -20 -20 -20 -20 -20 -20 -20 -20 -20 -20 -20 -20 -20 -20 -20 -11 -20 -20
5 -20 -20 -20 -20 -20 -20 -20 -20 -20 -20 -20 -20 -20 -20 -20 -20 -20 -20 -20 -20 -20 -20 -20 -20 -20 -20 -20 -20 -20 -20 -20 -13 -20 -20 -14 0 -19
-5 -10 -18 -20 -20 -20 -20 -20 -20 -20 -20 -20 -20 -20 -20 -20 -20 -20 -20 -20 -20 -20 -20 -20 -20 -20 -5 -1 -15 -20 -20 -5 -15 -20 -20 -16 -20 -20
-20 -20 -20 -20 -20 -20 -20 -20 -20 -20 -20 -20 -20 -20 -20 -20 -20 -20 -20 -20 -20 -20 -20 -20 -20 -20 -20 -20 -15 -20 -20 -20 -8 -4 -9 7 -15 -20
-20 -20 -20 -20 -20 -20 -20 -20 -20 -20 -20 -20 -20 -20 -20 -20 -20 -20 -20 -20 -20 -20 -20 -20 -20 -20 -20 -17 -20 -20 -20 -20 -20 -20 -20 1 10 4
-20 -20 -20 -20 -20 -20 -20 -20 -20 -20 -20 -20 -20 -20 -20 -20 -20 -20 -20 -20 -20 -20 -20 -20 -20 -20 -20 -20 -20 -20 -20 -20 -20 -20 2 -20 -20 -20

GFSNE_prec_radar_123.txt.gz
Reflectivity
33 31 -20 -19 1 -20 -20 -20 -5 -20 7 -18 -18 12 -6 -19 -20 -14 -20 -17 -10 13 -4 3 8 -16 -16 -18 4 12 6 3 -12 3 -20 -15 -3 1
33 29 -7 6 -14 -19 -9 -20 -20 -20 -20 2 3 23 17 -2 -19 -19 -2 12 8 -12 -20 17 9 12 -5 -5 -16 -14 -6 -0 -19 -6 -5 -20 -20 4
30 23 -20 2 6 11 -20 -20 -20 -9 15 -1 -4 2 -1 -3 3 -5 15 8 11 14 11 20 22 17 11 -20 -16 -20 -14 -4 -20 -15 -7 -18 -18 1
28 24 13 12 21 10 -20 -20 -19 9 -11 -13 10 11 8 -12 -3 1 10 4 10 23 12 21 18 23 13 6 -8 -20 -20 -20 -11 -20 -20 -20 -20 -20
24 26 15 16 5 -20 -20 9 22 10 5 19 26 18 13 26 15 30 24 16 6 24 15 15 14 -1 -12 -20 -20 -20 -20 -20 -20 -11 -20 -20 -20 -20
29 26 9 -17 -17 -13 1 14 26 20 26 23 19 19 17 9 26 21 18 10 11 13 18 13 12 7 14 -1 -6 0 -7 -11 -11 -20 -20 -20 -20 -20
23 29 30 25 19 20 28 23 34 33 29 23 10 17 14 18 21 22 19 13 8 -2 15 1 3 8 1 -12 -20 -3 -5 -18 -20 -20 -20 -20 -20 -20
26 18 15 28 33 35 36 33 35 27 26 18 4 13 18 22 20 21 19 13 10 -6 3 5 -4 -20 -20 -20 -20 -20 -20 -20 -20 -20 -20 -20 -20 -20
32 33 31 32 31 36 34 35 27 25 19 18 21 15 18 25 19 0 -1 17 3 -6 -1 -3 -17 -4 8 2 -19 -20 -20 -20 -20 -20 -20 -20 -20 -20
36 34 34 35 36 32 34 31 23 22 10 12 14 15 16 15 16 7 10 14 8 9 13 7 3 -5 -3 -10 -20 -20 -20 -20 -20 -20 -20 -20 -20 -20
31 36 34 34 33 28 29 29 25 1 15 11 18 24 22 16 12 3 4 5 14 11 11 -10 -8 3 1 -4 -18 -20 -20 -20 -20 -20 -20 -20 -20 -20
7 19 29 30 29 27 7 2 19 19 22 24 17 8 11 9 14 13 3 7 6 2 -1 -6 -13 -20 -20 -20 -19 -20 -20 -20 -20 -20 -20 -20 -20 -20
-17 -10 3 14 13 -2 12 -0 5 2 5 11 -12 -1 8 12 13 12 10 8 2 -13 -18 -20 -18 -11 -15 -20 -20 -20 -20 -20 -20 -20 -20 -20 -20 -20
-9 -7 -5 8 20 15 15 21 10 9 -12 -19 -20 -3 15 15 12 0 -18 -16 -15 -18 -20 -20 -20 -20 -20 -17 -19 -20 -20 -20 -20 -20 -20 -20 -20 -20
-20 4 8 2 -18 -5 7 10 6 -4 -4 7 8 -0 -18 -20 -20 -20 -20 -20 -20 -20 -20 -20 -20 -20 -20 -20 -20 -20 -20 -20 -20 -20 -20 -20 -20 -20
13 4 9 8 14 15 12 9 4 11 -2 -20 -20 -20 -20 -20 -20 -20 -20 -20 -20 -20 -20 -20 -20 -20 -20 -20 -20 -20 -20 -20 -20 -20 -20 -20 -20 -20
17 -4 1 -5 -4 4 13 18 6 -20 -20 -20 -20 -20 -20 -20 -20 -20 -20 -20 -20 -20 -20 -20 -20 -20 -20 -20 -20 -20 -20 -20 -20 -20 -14 -14 -20 -9
15 16 17 9 13 4 -17 -20 -20 -20 -20 -20 -20 -20 -20 -20 -20 -20 -20 -20 -20 -20 -20 -20 -20 -20 -20 -20 -20 -20 -20 -20 -20 -20 -12 2 -18 -20
20 21 19 14 7 -20 -19 -20 -20 -20 -20 -20 -20 -20 -20 -20 -20 -20 -20 -20 -20 -20 -20 -20 -20 -20 -20 -20 -20 -20 -20 -20 -15 -2 -4 -15 -3 -7
15 17 16 1 -20 -20 -20 -20 -20 -20 -20 -20 -20 -20 -20 -20 -20 -20 -20 -20 -20 -20 -20 -20 -20 -20 -20 -7 -17 -20 -19 -13 -15 4 3 -16 -20 -20
7 -20 -20 -20 -12 -20 -20 -20 -20 -20 -20 -20 -20 -20 -20 -20 -20 -20 -15 -20 -20 -20 -20 -20 -20 -20 -20 -20 -1 -7 -12 -20 -20 -19 -14 7 7 -8
-20 -19 -20 -20 -20 -20 -20 -20 -20 -20 -20 -20 -20 -20 -6 -20 -20 -20 -20 -20 -20 -20 -20 -20 -20 -20 -20 -10 -6 -14 -20 -20 -20 -20 -20 -20 3 7
-5 -20 -20 -20 -20 -20 -20 -20 -20 -20 -20 -20 -20 -20 -20 -7 -20 -13 -20 -19 -20 -20 -20 -20 -20 -20 -20 -3 -3 -11 -18 6 -13 -1 -20 -1 -20 -20

GFSNE_prec_radar_126.txt.gz
Reflectivity
32 22 29 27 -20 -7 -16 -20 -20 -20 6 -20 -18 -17 -20 -20 -20 -1 -20 -19 -11 -6 -10 -4 -20 -13 5 9 -4 2 11 3 -7 -4 10 0 -5 -20
26 27 30 32 28 -18 -12 -9 2 4 -2 -4 13 -20 -20 -20 9 22 -12 -6 -11 -12 -5 9 -7 16 14 -3 9 14 17 9 -13 -2 -20 -13 -9 -20
33 28 31 28 35 -5 -20 -20 -16 15 13 -20 -20 -20 -20 -19 -15 -20 -20 -20 -4 6 6 15 9 12 10 16 14 16 3 -10 -12 -1 4 -2 -15 -20
30 34 33 29 33 20 -20 10 24 20 -20 -8 -20 -20 -4 -5 1 -12 -1 11 -18 20 10 11 13 9 6 11 12 19 -6 9 12 -4 -20 -20 -20 -19
28 31 32 34 30 31 10 12 23 16 9 -20 -20 -20 -20 -20 -11 -4 -20 -11 12 25 20 14 13 3 17 14 0 -13 -4 10 -2 -20 -20 -20 -20 -20
24 30 30 33 34 28 27 32 19 23 3 -2 -20 -20 -18 -0 -19 -16 -11 -3 16 14 20 21 17 15 6 6 3 7 4 -12 -20 -20 -20 -20 -20 -20
10 19 32 32 34 31 24 22 15 -13 14 23 7 -2 13 10 11 -16 4 18 17 15 14 15 7 8 -5 12 7 7 -2 -20 -20 -20 -20 -20 -20 -20
-4 26 33 32 30 27 18 26 -2 12 17 26 31 28 22 18 8 8 16 18 12 23 20 2 1 7 6 0 12 -20 -20 -20 -20 -20 -20 -20 -20 -20
26 29 25 24 26 27 32 31 26 35 31 30 27 22 26 14 21 20 14 15 9 2 17 11 4 2 0 -6 -20 -20 -20 -20 -20 -20 -20 -20 -20 -20
29 28 27 31 33 33 33 35 36 35 32 23 24 30 26 25 17 7 7 7 19 6 6 7 7 -3 -6 -15 -20 -20 -20 -20 -20 -20 -20 -20 -20 -20
30 33 31 35 38 37 35 36 35 31 30 26 30 30 27 22 14 13 26 14 12 12 10 9 11 -3 -20 -20 -20 -20 -20 -20 -20 -20 -20 -20 -20 -20
-3 16 29 31 32 33 30 32 30 28 24 26 24 15 15 18 20 6 3 -4 4 18 12 3 4 -20 -20 -20 -20 -20 -20 -20 -20 -20 -20 -20 -20 -20
-20 -20 -2 13 23 29 27 26 24 23 24 25 16 9 8 10 8 -0 -2 1 -13 -13 -19 -20 -20 -20 -20 -20 -20 -20 -20 -20 -20 -20 -20 -20 -20 -20
-20 -20 -1 7 17 16 13 17 18 15 5 6 2 -4 5 6 2 -3 -9 -14 -20 -20 -20 -20 -20 -20 -20 -20 -20 -20 -20 -20 -20 -20 -20 -20 -20 -20
-20 -9 -3 -3 1 17 21 19 19 11 13 7 -6 4 7 9 3 -14 -19 -20 -20 -20 -20 -20 -20 -20 -20 -20 -20 -20 -20 -20 -20 -20 -20 -20 -20 -20
14 8 10 17 23 23 25 17 -6 1 4 3 3 7 4 -0 -19 -20 -20 -20 -20 -20 -20 -20 -20 -20 -20 -20 -20 -20 -20 -20 -20 -20 -20 -20 -20 -20
21 13 -1 -2 -17 -7 -6 2 5 7 11 15 12 9 3 -18 -18 -20 -20 -20 -20 -20 -20 -20 -20 -20 -20 -20 -20 -20 -20 -20 -20 -20 -20 -20 -20 -20
15 8 20 12 8 11 5 8 16 15 14 12 -9 -17 -17 -20 -20 -20 -20 -20 -20 -20 -20 -20 -20 -20 -20 -20 -20 -20 -20 -20 -20 -20 -20 -20 -20 -20
9 17 19 19 20 21 18 14 8 -9 -19 -20 -20 -20 -20 -20 -20 -20 -20 -20 -20 -20 -20 -20 -20 -20 -20 -20 -20 -20 -20 -20 -20 -20 -20 -20 -20 -20
23 25 24 20 16 17 15 9 -11 -20 -20 -20 -20 -20 -20 -20 -20 -20 -20 -20 -20 -20 -20 -20 -20 -20 -20 -20 -20 -20 -20 -20 -20 -20 -20 -20 -20 -20
21 22 21 19 3 -5 -16 -15 -20 -20 -20 -20 -20 -20 -20 -20 -20 -20 -20 -20 -20 -20 -20 -20 -20 -20 -20 -20 -20 -20 -20 -20 -8 -20 -20 -20 -20 -20
19 18 16 12 -14 -9 -2 1 -1 -6 -20 -20 -20 -20 -20 -20 -20 -20 -20 -20 -20 -20 -20 -20 -20 -20 -20 -20 -20 -20 -20 -20 -20 -20 -20 -3 -20 -17
14 6 -1 -1 -0 1 -1 -9 -20 -20 -20 -20 -20 -20 -20 -20 -20 -20 -20 -20 -20 -20 -20 -20 -20 -20 -20 -20 -2 -20 -20 -20 -20 -20 -20 -20 -20 -20

GFSNE_prec_radar_132.txt.gz
Reflectivity
-4 -17 -2 4 20 17 32 17 20 4 -19 -20 -20 5 -1 -13 2 -20 -20 -4 -20 9 -20 6 -1 -6 -13 24 10 12 13 19 19 -6 -11 -14 -20 -14
-5 -16 15 12 30 32 33 28 30 16 13 -20 -12 3 -20 -10 7 -20 -10 9 3 -12 7 4 -13 -20 16 7 17 -15 -3 18 -16 -10 -20 -8 -16 -17
18 11 22 8 28 32 26 28 24 23 21 -12 1 -3 -20 -13 -2 -19 4 -20 -6 6 3 20 -20 -10 16 12 -3 -2 7 -20 -2 9 -19 -19 -20 -19
-3 24 10 14 37 29 23 24 22 26 -6 -20 -1 -2 -20 -14 0 -4 21 17 20 4 15 29 -9 16 23 20 17 10 -3 5 6 4 -6 -20 -20 -20
-3 -14 0 0 31 33 36 25 27 29 13 -20 1 -18 -5 -4 1 27 14 30 24 15 15 39 22 26 18 26 14 12 -18 8 6 -16 -18 -20 -20 -20
-4 -10 -11 3 21 32 35 34 35 28 26 9 24 7 6 14 14 14 35 24 22 23 34 29 28 24 27 26 22 -13 8 4 -3 -20 -20 -20 -20 -20
-20 -10 -18 8 21 30 29 35 33 28 31 24 14 10 27 18 23 23 24 25 10 3 18 33 23 26 27 25 13 9 -5 -20 -20 -20 -20 -20 -20 -20
-20 -20 -15 14 0 -16 27 27 33 26 23 20 25 -5 20 34 31 30 29 14 20 11 24 24 19 19 17 11 17 1 -20 -10 -20 -20 -20 -20 -20 -20
-20 -18 -13 -20 19 -7 17 30 28 30 31 29 10 -2 25 19 27 33 26 23 25 19 23 26 22 16 9 4 8 -10 -20 -20 -20 -20 -20 -20 -20 -20
9 -7 -20 -14 12 12 36 24 31 30 31 28 28 32 31 29 29 27 31 34 31 28 29 26 14 7 7 -1 -9 -19 -20 -20 -20 -20 -20 -20 -20 -20
15 -13 -0 25 22 16 34 30 36 35 29 27 33 32 32 32 29 31 30 30 31 31 30 20 10 9 -6 -20 -20 -20 -20 -20 -20 -20 -20 -20 -20 -20
15 15 14 16 22 11 18 29 27 35 27 27 32 32 29 29 33 25 32 29 30 22 17 15 9 -17 -18 -20 -20 -20 -20 -20 -20 -20 -20 -20 -20 -20
15 11 -4 15 -8 14 21 19 21 33 33 36 32 32 29 27 29 32 34 30 24 18 13 6 -8 -14 -20 -20 -20 -20 -20 -20 -20 -20 -20 -20 -20 -20
-17 7 12 -9 5 9 22 31 37 36 32 32 30 33 30 29 31 33 28 22 15 12 4 -5 -16 -20 -20 -20 -20 -20 -20 -20 -20 -20 -20 -20 -20 -20
15 15 15 4 -3 5 10 23 30 32 33 34 29 32 33 33 34 29 20 14 -6 -20 -20 -20 -20 -20 -20 -20 -20 -20 -20 -20 -20 -20 -20 -20 -20 -20
14 5 -2 5 15 7 1 8 9 17 21 17 22 30 29 23 13 4 -9 -16 -16 -15 -19 -20 -20 -20 -20 -20 -20 -20 -20 -20 -20 -20 -20 -20 -20 -20
-2 -11 -12 -10 -4 -7 -4 1 12 22 16 8 7 3 3 7 1 -1 -15 -17 -15 -10 -20 -20 -20 -20 -20 -20 -20 -20 -20 -20 -20 -20 -20 -20 -20 -20
9 -16 -20 -20 -18 -1 -17 -17 -2 12 -10 -7 2 -9 -16 -19 -18 -4 3 2 -2 -20 -20 -20 -20 -20 -20 -20 -20 -20 -20 -20 -20 -20 -20 -20 -20 -20
9 -20 -20 -14 1 -9 -4 5 -3 -3 10 14 16 12 -2 -4 4 7 8 -6 -20 -20 -20 -20 -20 -20 -20 -20 -20 -20 -20 -20 -20 -20 -20 -20 -20 -20
12 20 21 16 16 12 3 9 8 10 16 15 13 9 3 4 7 1 -13 -20 -20 -20 -20 -20 -20 -20 -20 -20 -20 -20 -20 -20 -20 -20 -20 -20 -20 -20
30 22 15 15 14 15 20 20 19 20 18 14 12 11 6 -7 -20 -20 -11 -17 -20 -20 -20 -20 -20 -20 -20 -20 -20 -20 -20 -20 -20 -20 -20 -20 -20 -20
29 27 24 24 25 24 23 21 18 15 14 14 10 -8 -15 -5 -2 -3 -17 -20 -20 -20 -20 -20 -20 -20 -20 -20 -20 -20 -20 -20 -20 -20 -20 -20 -20 -20
29 28 28 24 21 20 19 17 13 10 7 1 -1 -3 -7 -4 -20 -20 -20 -20 -20 -20 -20 -20 -20 -20 -20 -20 -20 -20 -20 -20 -20 -20 -20 -20 -20 -20

GFSNE_prec_radar_135.txt.gz
Reflectivity
17 15 -20 -20 -20 20 -17 6 18 35 28 16 -20 -19 5 11 -20 -20 -20 -20 -20 -20 -20 -20 -11 -1 4 1 3 -13 1 -20 -20 -20 -16 17 -18 -16
15 5 -20 -20 -9 -5 21 -1 31 29 21 30 19 -13 -15 17 -1 -20 -15 -6 -10 -20 -8 7 8 2 15 7 -3 -9 5 -20 -20 -7 -17 20 5 13
12 -19 -4 7 4 10 14 36 23 32 34 19 28 26 -9 -20 -15 -20 2 -20 2 3 7 5 3 -2 30 20 -11 -20 5 -20 -9 10 1 17 6 -16
8 -19 -6 8 -1 14 17 36 34 30 34 21 26 23 21 5 -20 -7 -14 -20 -20 17 14 16 9 8 10 34 32 16 7 13 17 16 10 -20 -20 -20
10 12 8 11 7 18 20 23 27 31 31 24 15 26 32 14 2 5 -20 -19 4 19 14 12 10 20 28 31 33 19 3 24 19 18 17 -20 -20 -20
12 11 2 8 2 -12 4 20 28 32 26 16 28 31 33 15 1 -10 7 12 11 7 18 28 31 25 29 19 19 12 23 19 20 16 -20 -20 -20 -20
-20 -20 -20 2 5 -20 2 15 27 30 29 28 29 29 25 -2 2 17 18 22 13 17 16 28 31 32 31 26 24 23 21 22 -2 -16 -20 -20 -20 -20
1 -8 -20 12 1 -10 2 25 20 21 20 25 26 19 18 7 13 31 25 16 24 15 23 22 28 20 16 18 23 18 12 6 -20 -20 -20 -20 -20 -20
-4 -14 -20 -20 -20 -20 8 2 28 22 14 25 27 26 28 23 26 32 29 33 32 28 30 32 16 12 11 23 19 9 11 -0 -20 -20 -20 -20 -20 -20
-20 -8 -7 13 5 1 13 10 10 6 17 29 21 30 27 35 37 34 34 32 32 31 25 22 3 9 17 18 9 12 12 -18 -20 -20 -20 -20 -20 -20
-16 -8 -12 -15 17 12 1 -2 16 13 31 25 36 33 30 33 36 33 30 31 33 27 22 29 25 23 24 13 10 13 -17 -20 -20 -20 -20 -20 -20 -20
-0 13 17 3 18 -10 -6 20 -4 27 7 5 32 32 33 34 31 32 36 34 31 34 17 21 25 23 16 15 11 -20 -6 -20 -20 -20 -20 -20 -20 -20
-20 -20 -16 14 1 4 -8 -1 1 25 26 11 32 35 35 33 35 37 34 30 30 32 22 27 25 16 8 -20 -17 -16 -20 -20 -20 -20 -20 -20 -20 -20
-20 -10 -4 14 8 -6 5 11 8 19 12 15 35 30 30 29 36 36 35 32 29 27 27 24 18 11 -12 -20 -20 -20 -20 -20 -20 -20 -20 -20 -20 -20
12 21 21 13 9 3 8 10 9 18 24 28 35 32 37 38 33 33 31 32 30 25 23 20 8 -20 -20 -17 -20 -20 -20 -20 -20 -20 -20 -20 -20 -20
13 7 10 -10 8 -15 -9 -1 -6 5 21 29 35 36 31 33 29 25 33 32 20 21 19 12 2 -20 -18 -20 -20 -20 -20 -20 -20 -20 -20 -20 -20 -20
0 7 -6 -19 -20 -20 -20 -19 -12 3 12 21 27 28 21 13 10 18 17 15 12 10 5 -5 -6 -19 -20 -20 -20 -20 -20 -20 -20 -20 -20 -20 -20 -20
22 -20 -20 -1 -20 -20 -20 -17 -3 14 7 8 14 0 3 5 1 -2 -2 1 -0 -17 -20 -20 -19 -20 -20 -20 -20 -20 -20 -20 -20 -20 -20 -20 -20 -20
12 -5 -14 -8 1 -18 -3 -4 -10 -1 5 6 9 3 7 3 8 -9 -18 -15 -17 -20 -20 -20 -20 -20 -20 -20 -20 -20 -20 -20 -20 -20 -20 -20 -20 -20
14 15 13 20 0 -10 -12 -1 -9 -19 -14 -3 -3 -7 -1 8 12 2 5 7 8 -7 -20 -20 -20 -20 -20 -20 -20 -20 -20 -20 -20 -20 -20 -20 -20 -20
21 19 23 24 33 24 11 16 10 9 3 7 12 11 10 12 15 14 9 -7 -20 -20 -16 -10 -16 -20 -20 -20 -20 -20 -20 -20 -20 -20 -20 -20 -20 -20
28 29 28 28 23 28 29 27 22 20 18 19 20 18 16 14 5 -5 -20 -9 2 1 -12 -20 -20 -20 -20 -20 -20 -20 -20 -20 -20 -20 -20 -20 -20 -20
26 28 28 26 26 26 23 19 20 20 18 19 18 16 12 12 10 7 7 5 4 -5 -20 -20 -20 -20 -20 -20 -20 -20 -20 -20 -20 -20 -20 -20 -20 -20

GFSNE_prec_radar_138.txt.gz
Reflectivity
6 -1 8 -17 -7 11 -20 -20 6 1 -20 -20 33 11 11 20 -20 -20 2 -5 -20 -20 -20 3 7 10 6 10 10 5 -4 8 4 -10 -19 -20 -20 -20
-5 4 13 20 -20 -13 -20 -20 -20 21 5 -20 -7 31 23 24 -20 -20 -20 -20 -20 -20 -20 -20 -20 -18 -3 6 2 -1 5 11 7 7 -7 -20 -19 -20
8 13 12 27 0 6 -13 -14 -1 -12 3 5 20 39 27 30 10 -20 -20 -20 -20 -20 -20 -19 -20 -17 -6 -1 4 -18 27 26 18 7 -13 -6 -3 -20
16 14 21 14 -18 1 -16 -5 -19 -20 23 32 24 37 29 33 27 3 -20 -20 -20 17 9 7 -19 -2 15 19 17 13 22 17 21 17 10 15 2 2
19 2 22 27 -20 -19 -10 13 -16 19 25 25 16 16 28 29 29 29 -7 -20 -0 16 16 17 16 17 16 16 16 17 25 28 14 19 17 17 15 15
10 16 24 6 -6 -13 17 15 10 16 30 12 24 13 26 28 29 29 23 10 -12 3 14 23 22 17 19 15 25 24 21 19 16 20 15 20 15 -3
-16 1 2 12 11 8 11 -3 6 -10 5 10 20 20 27 26 27 26 25 18 21 2 19 24 10 4 11 28 35 28 22 20 22 21 17 9 -20 -20
-20 -20 -15 -20 -0 -6 0 5 -10 -2 -7 1 11 13 25 24 26 34 30 30 27 18 26 28 12 5 27 32 34 31 20 22 19 12 10 2 -20 -20
-7 -20 -20 -20 6 -20 17 9 11 20 -11 -20 -15 8 31 23 24 33 33 31 26 28 30 27 12 8 23 31 26 28 25 18 12 13 9 -20 -20 -20
27 -2 -20 10 8 -11 15 15 11 7 4 -6 -19 -10 7 38 33 27 34 35 32 35 27 19 15 30 29 30 31 26 12 10 12 13 3 -13 -20 -20
18 44 14 15 17 -1 11 18 -9 6 22 13 17 16 15 29 33 34 35 32 27 28 20 26 30 31 28 27 27 21 14 16 15 9 -3 -13 -20 -20
0 36 13 12 15 6 2 21 -20 -20 -3 10 13 19 20 27 29 31 38 33 30 30 30 23 32 32 30 26 20 16 15 14 13 1 0 -5 -20 -20
-11 18 -2 21 -6 6 15 -5 -10 -11 8 20 27 21 28 26 30 31 33 34 35 32 29 32 30 32 28 21 17 15 11 2 -8 2 -4 -20 -20 -20
36 28 17 0 -12 -18 10 15 10 -1 -18 -11 -2 21 24 21 19 30 33 29 31 37 40 31 27 25 30 20 12 11 -4 -11 5 -15 -20 -20 -20 -20
-4 29 26 -10 11 13 11 12 10 -2 -20 -20 -13 5 15 27 27 34 34 32 32 34 30 33 29 24 20 14 12 10 -4 -19 -20 -20 -20 -20 -20 -20
33 30 32 13 18 14 12 3 -7 -20 -16 -20 -4 18 15 19 22 31 32 32 34 35 32 24 24 23 20 18 13 14 6 -20 -20 -20 -20 -20 -20 -20
9 7 19 11 9 -5 -12 -20 -20 -16 -12 -18 1 17 9 17 24 33 32 31 24 22 23 22 21 19 15 15 10 -3 -0 -6 -11 -20 -20 -20 -20 -20
20 24 25 29 7 -2 -6 -4 -19 4 -20 -19 -6 -2 9 20 25 24 22 22 22 21 20 17 12 10 5 1 0 1 -11 -17 -20 -20 -20 -20 -20 -20
5 16 21 20 12 -2 -4 4 -19 -18 -16 -3 3 10 13 18 21 16 5 -3 2 -1 4 -11 -16 -20 -20 -18 -20 -20 -20 -20 -20 -20 -20 -20 -20 -20
1 10 19 24 21 3 8 8 4 -14 -13 -1 9 13 16 13 5 -3 -6 -9 -10 -4 -5 4 6 -3 -18 -19 -20 -20 -20 -20 -20 -20 -20 -20 -20 -20
18 24 24 24 17 14 16 10 -4 -13 -3 3 12 12 11 8 12 3 -3 9 6 4 1 -11 -20 -8 -2 -17 -20 -20 -20 -20 -20 -20 -20 -20 -20 -20
22 26 25 27 25 24 22 20 18 18 16 14 16 15 9 11 15 16 11 7 6 -3 -11 8 -0 -20 -20 -20 -20 -20 -20 -20 -20 -20 -20 -20 -20 -20
20 20 18 23 24 24 22 25 27 25 20 20 19 16 15 16 16 13 10 6 15 14 3 -16 -9 -5 -10 -20 -20 -20 -20 -20 -20 -20 -20 -20 -20 -20

GFSNE_prec_radar_144.txt.gz
Reflectivity
15 11 -6 2 -14 21 2 24 21 24 17 -5 -7 -4 -5 4 -20 -18 -1 27 23 14 -6 -20 -20 -20 -20 4 -20 10 12 -6 -3 -20 -20 -20 -20 -20
-6 20 10 3 1 -1 17 20 -20 21 24 -20 -20 -20 -6 -19 -3 6 -19 4 17 9 -16 -15 -17 -20 -20 -6 -20 -18 12 -19 -20 -20 -15 -19 -20 -20
19 24 -8 -5 1 -16 11 14 -12 -3 -20 -6 -20 -14 0 3 -20 -12 -16 -14 18 13 6 8 2 -9 -20 -1 -7 9 12 9 7 8 7 10 -5 2
27 25 -4 -1 27 -4 -0 24 6 27 -10 3 -18 -16 -20 -20 -20 6 1 -4 8 21 23 23 22 6 -20 -20 -11 14 12 -15 -11 -4 16 2 20 16
23 18 2 23 -4 2 16 8 23 27 -2 19 -17 -11 -20 -20 -20 -20 -20 1 22 19 23 27 28 -18 -20 -20 -20 10 8 2 -18 11 16 16 20 21
7 7 16 23 -20 -14 -4 9 14 28 16 -4 15 -7 -20 -20 -20 -19 15 -20 11 25 27 28 24 8 -19 -13 1 7 10 6 12 16 16 17 -1 11
13 16 23 23 -0 15 4 6 19 20 11 -1 -20 3 -20 -20 -20 -20 -20 -20 -13 12 29 31 24 27 14 15 15 11 16 16 8 12 21 14 17 27
-18 16 25 24 18 25 25 22 23 26 18 -7 -20 -20 -20 -20 -20 -19 7 -20 -12 9 31 31 29 29 27 24 23 22 29 14 22 24 18 1 16 24
-20 -17 -11 4 23 9 30 25 23 31 9 -20 -20 -20 -20 -20 -20 -15 4 -20 -13 10 19 31 37 35 35 36 37 31 32 23 14 18 19 15 19 26
-20 -20 -5 -10 17 22 17 25 25 15 -8 -20 -20 -20 -6 -20 -20 -20 -20 -13 9 14 19 29 30 30 34 37 39 33 33 36 31 32 33 26 29 27
-20 -18 -8 10 22 27 22 32 31 21 16 5 15 -17 -20 1 5 -13 -20 -19 -11 -0 13 10 18 28 33 33 36 35 36 34 34 32 31 33 29 28
-20 8 9 4 18 13 12 2 9 31 15 14 4 9 14 8 14 -12 -20 -20 7 11 8 5 17 25 27 28 28 34 34 34 34 35 33 31 31 18
-20 -20 -20 -16 -16 11 27 16 -9 18 14 23 8 -12 -1 -12 -16 -9 -20 -5 -10 -20 7 17 11 25 29 28 30 30 31 25 25 32 36 34 27 12
-20 -20 -14 -19 -20 -20 6 23 33 20 -0 18 2 -14 7 2 -3 8 -6 11 5 19 22 30 17 15 28 22 29 29 27 24 25 25 34 31 24 12
-19 -7 -20 -20 -20 -20 4 15 20 9 8 14 -7 -20 -5 24 -4 1 -9 -6 10 2 13 20 25 15 22 21 28 34 29 27 31 32 34 25 15 11
-20 -20 -20 -20 -12 -17 12 -8 -6 20 18 34 19 30 -5 -13 -14 -9 -10 1 17 12 15 21 18 16 21 20 25 26 24 24 23 20 20 17 10 11
-13 -13 -20 -20 -20 -20 -13 -13 -0 7 11 14 36 29 17 9 13 9 12 10 10 6 14 16 22 22 23 20 24 24 23 21 21 21 17 14 11 11
-10 -5 -20 -20 -20 -20 -16 22 26 25 20 36 34 22 9 -16 -12 -3 6 1 3 3 13 14 19 22 22 23 23 22 22 22 21 17 13 12 9 4
2 -3 -20 -20 -20 -20 -3 12 6 15 31 35 33 -2 -20 -15 14 5 -12 -11 -5 6 9 12 18 19 16 13 20 21 18 15 10 7 2 -2 -3 -19
-1 -1 -20 -20 -20 -20 -20 10 16 25 16 28 24 18 -19 -20 -8 -13 -16 -16 -16 -7 9 13 12 12 4 -4 4 11 11 -1 -15 -5 2 -7 2 -10
1 -2 -2 -19 -17 -17 -13 8 12 16 20 29 25 29 11 -20 -13 -7 -3 10 -16 -15 -8 6 8 -1 -2 -4 -1 2 -18 -2 9 4 9 -2 -20 -20
5 4 1 -2 1 -6 -17 -20 4 18 21 25 27 27 17 10 4 11 -5 1 4 1 3 12 7 2 -13 -18 -13 1 8 6 10 7 -11 -19 -11 -6
7 7 7 6 4 5 -3 -15 5 19 24 29 29 28 20 18 12 5 -5 -13 -12 -10 -4 2 3 -16 0 11 12 10 10 -1 -19 -20 -20 -20 -20 -20

GFSNE_prec_radar_147.txt.gz
Reflectivity
-9 -4 16 27 22 22 23 17 31 25 -7 28 20 -20 -19 -3 -5 -20 -20 -20 -20 10 18 16 26 11 5 -20 -20 -20 -20 6 16 10 13 -20 -18 -20
-17 26 12 22 20 20 21 21 16 28 24 18 12 -20 -20 -20 -20 -20 -20 -20 -20 -17 11 -20 -11 -16 -12 8 1 -20 -20 -6 17 14 11 -7 -1 -13
28 18 11 21 10 11 22 20 1 -5 25 26 28 13 -18 -20 -20 -20 -20 -20 -20 -20 -20 -20 9 -7 -14 -20 -19 -15 -20 -9 14 12 4 8 6 3
2 24 17 28 29 20 1 21 26 8 21 9 27 9 15 33 26 -20 -20 -16 -20 -20 -20 -6 11 13 11 1 -13 -13 -20 -20 10 14 2 1 -14 2
16 12 -4 18 26 25 28 -6 0 21 20 16 28 -12 -20 32 29 -8 -20 4 -20 13 -14 -6 25 23 22 17 19 12 -2 -20 -13 12 30 6 12 2
-2 3 15 24 29 5 27 2 2 22 11 19 26 -3 -15 -14 5 -20 -5 -20 -20 -9 13 -10 15 21 21 25 28 29 6 -20 10 -5 13 16 -19 9
-20 -19 -8 17 17 -13 21 17 17 13 2 13 23 23 -2 -20 20 -6 -20 -20 -20 -20 -14 -8 -3 21 23 16 24 26 20 4 15 22 16 10 3 19
-20 -20 -20 -10 6 22 14 23 25 25 25 24 21 4 11 26 13 12 -20 -20 -20 -20 -20 -20 -10 9 24 31 29 30 30 27 19 19 25 12 8 14
-16 -6 -8 -7 4 2 3 5 26 22 32 25 23 22 1 22 25 -18 -20 -20 -20 -20 -20 -20 -20 2 5 17 31 31 26 33 27 19 23 25 13 19
-20 -19 -20 -20 -6 -12 -14 12 23 23 22 28 31 7 -19 8 13 -20 -20 -20 -20 -7 -18 -16 -7 -19 -12 6 30 31 37 32 29 31 27 34 32 31
-20 -20 -20 -20 14 -1 -20 7 17 17 9 35 31 13 13 5 -20 -20 -20 -20 -20 -1 -20 -20 -20 -17 -6 10 31 35 39 42 36 38 40 34 31 31
-20 -20 -20 -17 8 -19 -20 -20 -1 6 -17 5 15 48 33 22 7 -20 -20 -20 -11 -20 -20 -20 -18 11 -10 2 14 33 36 38 39 37 36 36 36 34
-20 -20 -20 -4 -14 -20 -20 -19 -10 12 20 18 34 31 17 15 10 -20 -18 -18 -15 16 -11 11 4 1 -8 2 4 8 19 26 31 34 37 38 37 35
-20 -20 -20 -20 -20 -20 -20 -20 7 14 11 10 26 6 10 34 15 3 -18 12 -5 -16 11 6 3 -4 18 10 23 12 14 18 22 27 27 36 37 37
-20 -3 -20 -20 -20 -20 -20 -20 -6 -2 -5 -3 -1 -16 -19 13 32 -4 8 8 4 -7 11 6 14 14 14 -0 -2 17 16 19 21 23 25 26 22 22
-3 -3 -20 -20 -20 -20 -20 -20 -20 -18 -4 23 12 14 28 27 20 30 20 5 26 20 9 8 -9 -2 13 9 12 12 12 17 21 20 23 28 31 30
-11 1 -10 -1 -20 -20 -20 -20 -20 -20 -4 -2 -10 12 15 9 19 32 32 26 18 -6 1 7 17 9 6 9 15 8 4 16 21 23 22 15 14 16
-5 0 4 3 -6 -20 -20 -20 -20 9 -7 -17 -19 -1 10 25 31 36 27 36 22 9 2 15 16 5 7 13 10 -3 10 13 18 19 18 14 17 17
9 5 9 6 -2 -20 -20 -20 -20 -20 -13 -15 8 9 -5 6 18 6 25 32 35 3 3 8 1 2 -2 -13 12 19 12 16 19 21 20 20 19 16
6 8 5 3 -1 -17 -20 -20 -20 -20 -18 6 4 25 28 27 28 25 32 25 27 15 13 3 -2 -0 -7 -19 -7 11 5 7 14 14 13 14 14 3
10 7 8 2 3 -2 -3 -17 -20 -17 -7 -10 7 18 19 25 33 35 31 25 23 21 14 -0 6 11 -15 -7 9 10 13 14 5 -4 -2 3 -11 4
12 13 10 9 8 4 4 -1 -6 -8 -8 -8 -6 13 24 25 15 21 20 22 26 22 -8 2 -12 -8 12 2 -15 -7 8 -2 -11 1 -14 3 6 -7
8 14 13 13 8 6 5 -1 -2 -10 -1 -17 -11 3 11 19 22 24 24 23 23 22 22 4 9 8 -1 1 -1 1 4 3 -9 5 6 -2 -1 -11